Time,TemperatureF,DewpointF,PressureIn,WindDirection,WindDirectionDegrees,WindSpeedMPH,WindSpeedGustMPH,Humidity,HourlyPrecipIn,Conditions,Clouds,dailyrainin,SoftwareType,DateUTC
2013-06-06 00:02:00,54.0,49.0,-100.00,ENE,70,4.0,6.0,85,0.00,,,-99.99,,2013-06-06 05:02:00,
2013-06-06 00:12:00,54.0,49.0,-100.00,ENE,70,4.0,6.0,85,0.00,,,-99.99,,2013-06-06 05:12:00,
2013-06-06 00:22:00,54.0,49.0,-100.00,ENE,70,4.0,6.0,85,0.00,,,-99.99,,2013-06-06 05:22:00,
2013-06-06 00:32:00,54.0,49.0,-100.00,ENE,70,4.0,6.0,85,0.00,,,-99.99,,2013-06-06 05:32:00,
2013-06-06 01:02:00,53.0,49.0,-100.00,NNE,15,4.0,5.0,87,0.00,,,-99.99,,2013-06-06 06:02:00,
2013-06-06 01:12:00,53.0,49.0,-100.00,NNE,15,4.0,5.0,87,0.00,,,-99.99,,2013-06-06 06:12:00,
2013-06-06 01:22:00,53.0,49.0,-100.00,NNE,15,4.0,5.0,87,0.00,,,-99.99,,2013-06-06 06:22:00,
2013-06-06 01:32:00,53.0,49.0,-100.00,NNE,15,4.0,5.0,87,0.00,,,-99.99,,2013-06-06 06:32:00,
2013-06-06 02:02:00,52.0,49.0,-100.00,NE,35,5.0,7.0,90,0.00,,,-99.99,,2013-06-06 07:02:00,
2013-06-06 02:12:00,52.0,49.0,-100.00,NE,35,5.0,7.0,90,0.00,,,-99.99,,2013-06-06 07:12:00,
2013-06-06 02:22:00,52.0,49.0,-100.00,NE,35,5.0,7.0,90,0.00,,,-99.99,,2013-06-06 07:22:00,
2013-06-06 02:32:00,52.0,49.0,-100.00,NE,35,5.0,7.0,90,0.00,,,-99.99,,2013-06-06 07:32:00,
2013-06-06 03:02:00,51.0,49.0,-100.00,NNE,25,4.0,7.0,91,0.00,,,-99.99,,2013-06-06 08:02:00,
2013-06-06 03:12:00,51.0,49.0,-100.00,NNE,25,4.0,7.0,91,0.00,,,-99.99,,2013-06-06 08:12:00,
2013-06-06 03:22:00,51.0,49.0,-100.00,NNE,25,4.0,7.0,91,0.00,,,-99.99,,2013-06-06 08:22:00,
2013-06-06 03:32:00,51.0,49.0,-100.00,NNE,25,4.0,7.0,91,0.00,,,-99.99,,2013-06-06 08:32:00,
2013-06-06 03:40:00,51.0,49.0,-100.00,NE,45,4.0,9.0,91,0.00,,,-99.99,,2013-06-06 08:40:00,
2013-06-06 04:02:00,51.0,49.0,-100.00,NE,45,4.0,9.0,91,0.00,,,-99.99,,2013-06-06 09:02:00,
2013-06-06 04:12:00,51.0,49.0,-100.00,NE,45,4.0,9.0,91,0.00,,,-99.99,,2013-06-06 09:12:00,
2013-06-06 04:22:00,51.0,49.0,-100.00,NE,45,4.0,9.0,91,0.00,,,-99.99,,2013-06-06 09:22:00,
2013-06-06 04:33:00,51.0,49.0,-100.00,NE,45,4.0,9.0,91,0.00,,,-99.99,,2013-06-06 09:33:00,
2013-06-06 04:40:00,51.0,49.0,-100.00,NNE,25,3.0,7.0,91,0.00,,,-99.99,,2013-06-06 09:40:00,
2013-06-06 05:03:00,51.0,49.0,-100.00,NNE,25,3.0,7.0,91,0.00,,,-99.99,,2013-06-06 10:03:00,
2013-06-06 05:12:00,51.0,49.0,-100.00,NNE,25,3.0,7.0,91,0.00,,,-99.99,,2013-06-06 10:12:00,
2013-06-06 05:23:00,51.0,49.0,-100.00,NNE,25,3.0,7.0,91,0.00,,,-99.99,,2013-06-06 10:23:00,
2013-06-06 05:33:00,51.0,49.0,-100.00,NNE,25,3.0,7.0,91,0.00,,,-99.99,,2013-06-06 10:33:00,
2013-06-06 05:41:00,51.0,49.0,-100.00,ENE,60,4.0,7.0,91,0.00,,,-99.99,,2013-06-06 10:41:00,
2013-06-06 06:02:00,51.0,49.0,-100.00,ENE,60,4.0,7.0,91,0.00,,,-99.99,,2013-06-06 11:02:00,
2013-06-06 06:12:00,51.0,49.0,-100.00,ENE,60,4.0,7.0,91,0.00,,,-99.99,,2013-06-06 11:12:00,
2013-06-06 06:22:00,51.0,49.0,-100.00,ENE,60,4.0,7.0,91,0.00,,,-99.99,,2013-06-06 11:22:00,
2013-06-06 06:32:00,51.0,49.0,-100.00,ENE,60,4.0,7.0,91,0.00,,,-99.99,,2013-06-06 11:32:00,
2013-06-06 06:42:00,51.0,49.0,-100.00,NE,55,4.0,9.0,91,0.00,,,-99.99,,2013-06-06 11:42:00,
2013-06-06 07:03:00,51.0,49.0,-100.00,NE,55,4.0,9.0,91,0.00,,,-99.99,,2013-06-06 12:03:00,
2013-06-06 07:12:00,51.0,49.0,-100.00,NE,55,4.0,9.0,91,0.00,,,-99.99,,2013-06-06 12:12:00,
2013-06-06 07:23:00,51.0,49.0,-100.00,NE,55,4.0,9.0,91,0.00,,,-99.99,,2013-06-06 12:23:00,
2013-06-06 07:33:00,51.0,49.0,-100.00,NE,55,4.0,9.0,91,0.00,,,-99.99,,2013-06-06 12:33:00,
2013-06-06 07:41:00,51.0,49.0,-100.00,NE,50,5.0,9.0,91,0.00,,,-99.99,,2013-06-06 12:41:00,
2013-06-06 08:03:00,51.0,49.0,-100.00,NE,50,5.0,9.0,91,0.00,,,-99.99,,2013-06-06 13:03:00,
2013-06-06 08:13:00,51.0,49.0,-100.00,NE,50,5.0,9.0,91,0.00,,,-99.99,,2013-06-06 13:13:00,
2013-06-06 08:23:00,51.0,49.0,-100.00,NE,50,5.0,9.0,91,0.00,,,-99.99,,2013-06-06 13:23:00,
2013-06-06 08:32:00,51.0,49.0,-100.00,NE,50,5.0,9.0,91,0.00,,,-99.99,,2013-06-06 13:32:00,
2013-06-06 08:42:00,52.0,50.0,-100.00,ENE,60,6.0,10.0,91,0.00,,,-99.99,,2013-06-06 13:42:00,
2013-06-06 09:03:00,52.0,50.0,-100.00,ENE,60,6.0,10.0,91,0.00,,,-99.99,,2013-06-06 14:03:00,
2013-06-06 09:13:00,52.0,50.0,-100.00,ENE,60,6.0,10.0,91,0.00,,,-99.99,,2013-06-06 14:13:00,
2013-06-06 09:22:00,52.0,50.0,-100.00,ENE,60,6.0,10.0,91,0.00,,,-99.99,,2013-06-06 14:22:00,
2013-06-06 09:33:00,52.0,50.0,-100.00,ENE,60,6.0,10.0,91,0.00,,,-99.99,,2013-06-06 14:33:00,
2013-06-06 09:42:00,53.0,50.0,-100.00,East,80,4.0,10.0,91,0.00,,,-99.99,,2013-06-06 14:42:00,
2013-06-06 10:03:00,53.0,50.0,-100.00,East,80,4.0,10.0,91,0.00,,,-99.99,,2013-06-06 15:03:00,
2013-06-06 10:13:00,53.0,50.0,-100.00,East,80,4.0,10.0,91,0.00,,,-99.99,,2013-06-06 15:13:00,
2013-06-06 10:23:00,53.0,50.0,-100.00,East,80,4.0,10.0,91,0.00,,,-99.99,,2013-06-06 15:23:00,
2013-06-06 10:33:00,53.0,50.0,-100.00,East,80,4.0,10.0,91,0.00,,,-99.99,,2013-06-06 15:33:00,
2013-06-06 10:43:00,55.0,52.0,-100.00,ENE,70,6.0,11.0,91,0.00,,,-99.99,,2013-06-06 15:43:00,
2013-06-06 11:03:00,55.0,52.0,-100.00,ENE,70,6.0,11.0,91,0.00,,,-99.99,,2013-06-06 16:03:00,
2013-06-06 11:12:00,55.0,52.0,-100.00,ENE,70,6.0,11.0,91,0.00,,,-99.99,,2013-06-06 16:12:00,
2013-06-06 11:23:00,55.0,52.0,-100.00,ENE,70,6.0,11.0,91,0.00,,,-99.99,,2013-06-06 16:23:00,
2013-06-06 11:33:00,55.0,52.0,-100.00,ENE,70,6.0,11.0,91,0.00,,,-99.99,,2013-06-06 16:33:00,
2013-06-06 12:03:00,56.0,53.0,-100.00,NE,50,7.0,12.0,91,0.00,,,-99.99,,2013-06-06 17:03:00,
2013-06-06 12:13:00,56.0,53.0,-100.00,East,85,7.0,11.0,88,0.00,,,-99.99,,2013-06-06 17:13:00,
2013-06-06 12:23:00,56.0,53.0,-100.00,East,85,7.0,11.0,88,0.00,,,-99.99,,2013-06-06 17:23:00,
2013-06-06 12:33:00,56.0,53.0,-100.00,East,85,7.0,11.0,88,0.00,,,-99.99,,2013-06-06 17:33:00,
2013-06-06 12:43:00,56.0,53.0,-100.00,East,85,7.0,11.0,88,0.00,,,-99.99,,2013-06-06 17:43:00,
2013-06-06 13:13:00,57.0,53.0,-100.00,ENE,60,6.0,11.0,85,0.00,,,-99.99,,2013-06-06 18:13:00,
2013-06-06 13:23:00,57.0,53.0,-100.00,ENE,60,6.0,11.0,85,0.00,,,-99.99,,2013-06-06 18:23:00,
2013-06-06 13:33:00,57.0,53.0,-100.00,ENE,60,6.0,11.0,85,0.00,,,-99.99,,2013-06-06 18:33:00,
2013-06-06 13:43:00,57.0,53.0,-100.00,ENE,60,6.0,11.0,85,0.00,,,-99.99,,2013-06-06 18:43:00,
2013-06-06 14:13:00,57.0,53.0,-100.00,NE,55,7.0,12.0,86,0.00,,,-99.99,,2013-06-06 19:13:00,
2013-06-06 14:23:00,57.0,53.0,-100.00,NE,55,7.0,12.0,86,0.00,,,-99.99,,2013-06-06 19:23:00,
2013-06-06 14:33:00,57.0,53.0,-100.00,NE,55,7.0,12.0,86,0.00,,,-99.99,,2013-06-06 19:33:00,
2013-06-06 14:43:00,57.0,53.0,-100.00,NE,55,7.0,12.0,86,0.00,,,-99.99,,2013-06-06 19:43:00,
2013-06-06 15:03:00,56.0,53.0,-100.00,NE,50,7.0,11.0,87,0.00,,,-99.99,,2013-06-06 20:03:00,
2013-06-06 15:13:00,56.0,52.0,-100.00,ENE,60,8.0,13.0,86,0.00,,,-99.99,,2013-06-06 20:13:00,
2013-06-06 15:23:00,56.0,52.0,-100.00,ENE,60,8.0,13.0,86,0.00,,,-99.99,,2013-06-06 20:23:00,
2013-06-06 15:33:00,56.0,52.0,-100.00,ENE,60,8.0,13.0,86,0.00,,,-99.99,,2013-06-06 20:33:00,
2013-06-06 15:42:00,56.0,52.0,-100.00,ENE,60,8.0,13.0,86,0.00,,,-99.99,,2013-06-06 20:42:00,
2013-06-06 16:13:00,56.0,52.0,-100.00,NE,55,7.0,12.0,87,0.00,,,-99.99,,2013-06-06 21:13:00,
2013-06-06 16:23:00,56.0,52.0,-100.00,NE,55,7.0,12.0,87,0.00,,,-99.99,,2013-06-06 21:23:00,
2013-06-06 16:33:00,56.0,52.0,-100.00,NE,55,7.0,12.0,87,0.00,,,-99.99,,2013-06-06 21:33:00,
2013-06-06 16:43:00,56.0,52.0,-100.00,NE,55,7.0,12.0,87,0.00,,,-99.99,,2013-06-06 21:43:00,
2013-06-06 17:13:00,56.0,53.0,-100.00,NNE,20,6.0,12.0,87,0.00,,,-99.99,,2013-06-06 22:13:00,
2013-06-06 17:23:00,56.0,53.0,-100.00,NNE,20,6.0,12.0,87,0.00,,,-99.99,,2013-06-06 22:23:00,
2013-06-06 17:33:00,56.0,53.0,-100.00,NNE,20,6.0,12.0,87,0.00,,,-99.99,,2013-06-06 22:33:00,
2013-06-06 17:43:00,56.0,53.0,-100.00,NNE,20,6.0,12.0,87,0.00,,,-99.99,,2013-06-06 22:43:00,
2013-06-06 18:13:00,56.0,52.0,-100.00,NNE,25,6.0,12.0,87,0.00,,,-99.99,,2013-06-06 23:13:00,
2013-06-06 18:22:00,56.0,52.0,-100.00,NNE,25,6.0,12.0,87,0.00,,,-99.99,,2013-06-06 23:22:00,
2013-06-06 18:33:00,56.0,52.0,-100.00,NNE,25,6.0,12.0,87,0.00,,,-99.99,,2013-06-06 23:33:00,
2013-06-06 18:43:00,56.0,52.0,-100.00,NNE,25,6.0,12.0,87,0.00,,,-99.99,,2013-06-06 23:43:00,
2013-06-06 19:12:00,55.0,51.0,-100.00,NNE,25,6.0,10.0,87,0.00,,,-99.99,,2013-06-07 00:12:00,
2013-06-06 19:22:00,55.0,51.0,-100.00,NNE,25,6.0,10.0,87,0.00,,,-99.99,,2013-06-07 00:22:00,
2013-06-06 19:32:00,55.0,51.0,-100.00,NNE,25,6.0,10.0,87,0.00,,,-99.99,,2013-06-07 00:32:00,
2013-06-06 19:42:00,55.0,51.0,-100.00,NNE,25,6.0,10.0,87,0.00,,,-99.99,,2013-06-07 00:42:00,
2013-06-06 20:12:00,55.0,51.0,-100.00,NNE,25,4.0,9.0,88,0.00,,,-99.99,,2013-06-07 01:12:00,
2013-06-06 20:22:00,55.0,51.0,-100.00,NNE,25,4.0,9.0,88,0.00,,,-99.99,,2013-06-07 01:22:00,
2013-06-06 20:32:00,55.0,51.0,-100.00,NNE,25,4.0,9.0,88,0.00,,,-99.99,,2013-06-07 01:32:00,
2013-06-06 20:42:00,55.0,51.0,-100.00,NNE,25,4.0,9.0,88,0.00,,,-99.99,,2013-06-07 01:42:00,
2013-06-06 21:12:00,54.0,51.0,-100.00,NE,35,7.0,11.0,89,0.00,,,-99.99,,2013-06-07 02:12:00,
2013-06-06 21:22:00,54.0,51.0,-100.00,NE,35,7.0,11.0,89,0.00,,,-99.99,,2013-06-07 02:22:00,
2013-06-06 21:32:00,54.0,51.0,-100.00,NE,35,7.0,11.0,89,0.00,,,-99.99,,2013-06-07 02:32:00,
2013-06-06 21:42:00,54.0,51.0,-100.00,NE,35,7.0,11.0,89,0.00,,,-99.99,,2013-06-07 02:42:00,
2013-06-06 22:12:00,53.0,50.0,-100.00,NE,40,4.0,7.0,88,0.00,,,-99.99,,2013-06-07 03:12:00,
2013-06-06 22:22:00,53.0,50.0,-100.00,NE,40,4.0,7.0,88,0.00,,,-99.99,,2013-06-07 03:22:00,
2013-06-06 22:33:00,53.0,50.0,-100.00,NE,40,4.0,7.0,88,0.00,,,-99.99,,2013-06-07 03:33:00,
2013-06-06 22:43:00,53.0,50.0,-100.00,NE,40,4.0,7.0,88,0.00,,,-99.99,,2013-06-07 03:43:00,
2013-06-06 23:12:00,53.0,49.0,-100.00,NNE,30,3.0,7.0,88,0.00,,,-99.99,,2013-06-07 04:12:00,
2013-06-06 23:23:00,53.0,49.0,-100.00,NNE,30,3.0,7.0,88,0.00,,,-99.99,,2013-06-07 04:23:00,
2013-06-06 23:33:00,53.0,49.0,-100.00,NNE,30,3.0,7.0,88,0.00,,,-99.99,,2013-06-07 04:33:00,
2013-06-06 23:42:00,53.0,49.0,-100.00,NNE,30,3.0,7.0,88,0.00,,,-99.99,,2013-06-07 04:42:00,